Date,TemperatureHighF,TemperatureAvgF,TemperatureLowF,DewpointHighF,DewpointAvgF,DewpointLowF,HumidityHigh,HumidityAvg,HumidityLow,PressureMaxIn,PressureMinIn,WindSpeedMaxMPH,WindSpeedAvgMPH,GustSpeedMaxMPH,PrecipitationSumIn
2013-1-1,16,10,-1,-100,-100,-100,0,0,100,0.00,40.00,0,-999,0,0.02
2013-1-2,15,2,-9,-100,-100,-100,0,0,100,0.00,40.00,0,-999,0,0.01
2013-1-3,19,-4,-15,-100,-100,-100,0,0,100,0.00,40.00,0,-999,0,0.00
2013-1-4,18,-2,-13,-100,-100,-100,0,0,100,0.00,40.00,0,-999,0,0.00
2013-1-5,22,0,-12,-100,-100,-100,0,0,100,0.00,40.00,0,-999,0,0.00
2013-1-6,18,4,-8,-100,-100,-100,0,0,100,0.00,40.00,0,-999,0,0.00
2013-1-7,19,8,-4,-100,-100,-100,0,0,100,0.00,40.00,0,-999,0,0.17
2013-1-8,33,25,19,-100,-100,-100,0,0,100,0.00,40.00,0,-999,0,0.15
2013-1-9,40,31,24,-100,-100,-100,0,0,100,0.00,40.00,0,-999,0,0.01
2013-1-10,33,28,17,-100,-100,-100,0,0,100,0.00,40.00,0,-999,0,0.10
2013-1-11,17,12,2,-100,-100,-100,0,0,100,0.00,40.00,0,-999,0,0.03
2013-1-12,9,-1,-9,-100,-100,-100,0,0,100,0.00,40.00,0,-999,0,0.01
2013-1-13,9,-5,-14,-100,-100,-100,0,0,100,0.00,40.00,0,-999,0,0.02
2013-1-14,4,-5,-18,-100,-100,-100,0,0,100,0.00,40.00,0,-999,0,0.04
2013-1-15,13,7,-1,-100,-100,-100,0,0,100,0.00,40.00,0,-999,0,0.03
2013-1-16,19,8,-3,-100,-100,-100,0,0,100,0.00,40.00,0,-999,0,0.00
2013-1-17,20,1,-12,-100,-100,-100,0,0,100,0.00,40.00,0,-999,0,0.01
2013-1-18,26,5,-9,-100,-100,-100,0,0,100,0.00,40.00,0,-999,0,0.00
2013-1-19,30,8,-8,-100,-100,-100,0,0,100,0.00,40.00,0,-999,0,0.01
2013-1-20,33,12,-1,-100,-100,-100,0,0,100,0.00,40.00,0,-999,0,0.00
2013-1-21,31,11,-4,-100,-100,-100,0,0,100,0.00,40.00,0,-999,0,0.00
2013-1-22,31,11,-8,-100,-100,-100,0,0,100,0.00,40.00,0,-999,0,0.00
2013-1-23,26,10,-2,-100,-100,-100,0,0,100,0.00,40.00,0,-999,0,0.00
2013-1-24,36,25,9,-100,-100,-100,0,0,100,0.00,40.00,0,-999,0,0.16
2013-1-25,40,30,20,-100,-100,-100,0,0,100,0.00,40.00,0,-999,0,0.01
2013-1-26,40,35,31,-100,-100,-100,0,0,100,0.00,40.00,0,-999,0,0.05
2013-1-27,35,31,22,-100,-100,-100,0,0,100,0.00,40.00,0,-999,0,0.42
2013-1-28,22,16,6,-100,-100,-100,0,0,100,0.00,40.00,0,-999,0,0.07
2013-1-29,25,14,7,-100,-100,-100,0,0,100,0.00,40.00,0,-999,0,0.06
2013-1-30,31,23,11,-100,-100,-100,0,0,100,0.00,40.00,0,-999,0,0.09
2013-1-31,34,30,27,-100,-100,-100,0,0,100,0.00,40.00,0,-999,0,0.09